SCP
0 0 0 0 0 0 0 0 0 0 0 1 1 1 1 2 2 2 2 2 2 2 1 1 1 1 1 1 1 1 1 1 0 0 0 0 0 0 0 0 0 0 0
0 0 0 0 0 0 0 0 0 0 0 0 1 1 1 1 2 2 2 2 2 2 1 1 1 1 1 1 1 1 1 1 0 0 0 0 0 0 0 0 0 0 0
0 0 0 0 0 0 0 0 0 0 0 0 0 1 1 1 2 2 2 2 2 2 1 1 1 1 1 1 1 1 1 1 0 0 0 0 0 0 0 0 0 0 0
0 0 0 0 0 0 0 0 0 0 0 0 0 0 1 1 1 1 1 2 2 1 1 1 1 1 1 1 1 1 1 1 0 0 0 0 0 0 0 0 0 0 0
0 0 0 0 0 0 0 0 0 0 0 0 0 0 0 0 0 1 1 1 1 1 1 1 1 1 1 1 1 1 1 1 0 0 0 0 0 0 0 0 0 0 0
0 0 0 0 0 0 0 0 0 0 0 0 0 0 0 0 0 0 0 0 0 0 0 0 1 1 1 1 1 1 1 0 0 0 0 0 0 0 0 0 0 0 0
0 0 0 0 0 0 0 0 0 0 0 0 0 0 0 0 0 0 0 0 0 0 0 1 1 1 1 1 1 0 0 0 0 0 0 0 0 0 0 0 0 0 0
0 0 0 0 0 0 0 0 0 0 0 0 0 0 0 0 0 0 0 0 0 0 1 1 1 1 1 0 0 0 0 0 0 0 0 0 0 0 0 0 0 0 0
0 0 0 0 0 0 0 0 0 0 0 0 0 0 0 0 0 0 0 0 0 0 1 1 1 0 0 0 0 0 0 0 0 0 0 0 0 0 0 0 0 0 0
0 0 0 0 0 0 0 0 0 0 0 0 0 0 0 0 0 0 0 0 0 0 0 0 0 0 0 0 0 0 0 0 0 0 0 0 0 0 0 0 0 0 0
0 0 0 0 0 0 0 0 0 0 0 0 0 0 0 0 0 0 0 0 0 0 0 0 0 0 0 0 0 0 0 0 0 0 0 0 0 0 0 0 0 0 0
0 0 0 0 0 0 0 0 0 0 0 0 0 0 0 0 0 0 0 0 0 0 0 0 0 0 0 0 0 0 0 0 0 0 0 0 0 0 0 0 0 0 0
0 0 0 0 0 0 0 0 0 0 0 0 0 0 0 0 0 0 0 0 0 0 0 0 0 0 0 0 0 0 0 0 0 0 0 0 0 0 0 0 0 0 0
0 0 0 0 0 0 0 0 0 0 0 0 0 0 0 0 0 0 0 0 0 0 0 0 0 0 0 0 0 0 0 0 0 0 0 0 0 0 0 0 0 0 0
0 0 0 0 0 0 0 0 0 0 0 0 0 0 0 0 0 0 0 0 0 0 0 0 0 0 0 0 0 0 0 0 0 0 0 0 0 0 0 0 0 0 0
0 0 0 0 0 0 0 0 0 0 0 0 0 0 0 0 0 0 0 0 0 0 0 0 0 0 0 0 0 0 0 0 0 0 0 0 0 0 0 0 0 0 0
0 0 0 0 0 0 0 0 0 0 0 0 0 0 0 0 0 0 0 0 0 0 0 0 0 0 0 0 0 0 0 0 0 0 0 0 0 0 0 0 0 0 0
0 0 0 0 0 0 0 0 0 0 0 0 0 0 0 0 0 0 0 0 0 0 0 0 0 0 0 0 0 0 0 0 0 0 0 0 0 0 0 0 0 0 0
0 0 0 0 0 0 0 0 0 0 0 0 0 0 0 0 0 0 0 0 0 0 0 0 0 0 0 0 0 0 0 0 0 0 0 0 0 0 0 0 0 0 0
0 0 0 0 0 0 0 0 0 0 0 0 0 0 0 0 0 0 0 0 0 0 0 0 0 0 0 0 0 0 0 0 0 0 0 0 0 0 0 0 0 0 0
0 0 0 0 0 0 0 0 0 0 0 0 0 0 0 0 0 0 0 0 0 0 0 0 0 0 0 0 0 0 0 0 0 0 0 0 0 0 0 0 0 0 0
0 0 0 0 0 0 0 0 0 0 0 0 0 0 0 0 0 0 0 0 0 0 0 0 0 0 0 0 0 0 0 0 0 0 0 0 0 0 0 0 0 0 0
0 0 0 0 0 0 0 0 0 0 0 0 0 0 0 0 0 0 0 0 0 0 0 0 0 0 0 0 0 0 0 0 0 0 0 0 0 0 0 0 0 0 0
0 0 0 0 0 0 0 0 0 0 0 0 0 0 0 0 0 0 0 0 0 0 0 0 0 0 0 0 0 0 0 0 0 0 0 0 0 0 0 0 0 0 0
0 0 0 0 0 0 0 0 0 0 0 0 0 0 0 0 0 0 0 0 0 0 0 0 0 0 0 0 0 0 0 0 0 0 0 0 0 0 0 0 0 0 0
0 0 0 0 0 0 0 0 0 0 0 0 0 0 0 0 0 0 0 0 0 0 0 0 0 0 0 0 0 0 0 0 0 0 0 0 0 0 0 0 0 0 0
Wind_Speed
8 7 7 7 7 7 7 7 7 6 6 6 5 4 3 2 1 0 1 2 4 4 5 7 7 6 5 4 4 4 3 3 3 2 1 1 2 3 3 3 4 4 4
7 7 7 7 7 7 7 8 7 7 6 6 6 5 4 4 3 2 1 1 2 3 4 5 6 6 6 5 4 4 4 4 4 4 2 2 2 3 3 3 4 4 5
6 7 8 8 8 8 8 8 8 8 7 7 7 7 6 4 4 3 3 2 2 2 3 4 5 6 6 5 5 5 4 4 4 4 4 2 2 3 4 4 4 4 5
6 7 8 8 8 8 8 8 8 8 8 8 7 7 7 5 5 4 4 3 3 2 2 3 3 5 5 6 5 5 5 5 4 5 4 3 3 3 4 3 3 3 3
7 7 8 8 8 8 8 8 8 8 8 7 7 7 7 6 6 6 4 4 3 4 4 4 4 6 7 5 4 4 5 4 4 5 4 3 3 3 3 3 4 4 4
7 7 7 7 8 8 8 8 8 8 8 7 8 7 8 7 10 10 6 4 3 4 4 4 5 6 8 9 9 8 7 6 5 4 4 4 4 4 3 4 4 4 2
7 6 7 7 7 7 8 8 7 7 7 7 7 7 7 9 13 12 10 5 4 5 4 4 4 5 6 7 9 11 9 9 7 6 6 5 4 4 4 4 3 3 3
6 6 6 7 7 7 7 7 7 6 6 6 7 8 7 10 14 12 10 7 7 7 7 6 7 6 6 7 8 9 8 7 6 5 5 5 5 4 4 4 5 6 5
6 6 6 6 6 7 7 7 6 6 6 6 6 7 8 10 15 13 10 6 7 9 8 9 8 8 11 10 9 9 9 7 10 12 11 10 10 9 6 5 5 5 4
5 5 5 5 5 6 6 6 5 5 5 5 6 7 8 9 14 15 11 5 6 6 7 8 11 10 11 9 7 8 8 6 7 7 7 8 7 6 6 4 4 4 4
4 4 5 5 5 5 5 5 4 4 5 5 6 6 7 9 11 15 13 5 5 6 6 6 6 11 11 11 8 6 6 5 5 6 5 5 4 4 4 4 4 4 4
3 3 3 4 5 5 5 5 5 5 5 5 6 6 6 7 9 11 13 12 8 6 5 5 5 10 11 10 7 7 8 7 5 5 5 5 4 4 4 5 7 7 6
2 2 2 3 4 5 5 6 6 6 5 4 5 5 5 5 7 12 12 13 12 7 5 7 7 7 8 8 9 9 6 5 5 5 5 4 3 4 4 5 6 7 7
1 1 2 4 4 5 4 5 5 5 5 5 5 4 4 5 6 6 4 4 6 6 4 5 7 8 6 5 5 5 5 4 5 5 4 4 3 3 4 3 4 4 5
1 1 3 3 3 3 4 4 4 4 3 3 4 4 4 4 5 7 5 4 3 3 1 2 2 3 3 3 4 4 4 4 4 3 4 3 3 3 3 2 3 3 4
1 2 1 1 1 1 3 3 5 4 4 6 6 4 3 4 5 8 9 8 7 6 3 3 3 3 3 3 3 3 3 3 3 3 3 3 3 3 2 2 2 3 4
0 1 1 1 1 0 1 2 2 1 2 4 5 5 4 3 5 6 7 7 6 5 3 3 3 3 3 3 3 3 3 3 3 3 3 3 3 3 3 2 2 3 3
1 2 1 1 1 0 0 0 1 2 2 2 1 1 2 2 3 4 5 4 2 3 2 3 3 3 3 3 3 3 3 2 2 2 3 2 2 2 2 2 3 3 3
2 1 1 0 1 1 1 1 1 1 1 2 3 2 2 1 3 3 3 1 1 2 2 3 2 2 2 3 3 2 2 2 2 2 2 2 2 2 2 3 3 3 3
1 2 1 1 2 2 2 2 2 1 1 1 2 2 1 2 1 1 0 1 1 2 2 2 2 2 2 2 2 2 2 2 1 1 2 2 2 2 3 3 3 2 2
3 4 6 3 3 2 2 2 2 2 2 2 2 3 2 1 1 1 1 1 1 1 2 2 2 2 2 1 1 1 1 2 1 1 2 2 2 2 2 2 2 3 3
3 3 4 4 3 3 2 2 2 2 3 3 3 3 4 2 2 1 2 2 2 2 2 2 2 2 2 1 1 0 1 1 2 1 2 2 2 1 1 1 2 2 3
3 4 3 4 3 3 3 3 3 3 3 3 4 4 4 3 3 2 2 3 2 2 2 2 2 2 2 2 1 1 1 1 2 2 2 2 2 2 1 1 2 2 2
4 4 4 3 3 3 4 4 4 4 4 4 4 4 4 4 4 3 3 3 3 3 3 3 3 3 4 3 2 1 1 2 2 1 1 1 1 1 1 2 2 2 3
4 4 4 3 3 4 4 4 4 4 4 4 4 4 4 4 4 4 4 4 4 4 5 4 3 3 5 6 5 4 5 5 4 2 1 1 0 1 1 2 2 2 2
5 5 4 3 3 3 4 4 4 4 4 3 4 4 4 4 4 4 4 4 4 4 5 4 5 6 6 5 6 9 10 7 5 3 1 0 1 2 2 1 2 2 3
Wind_Direction
358 359 1 358 358 358 360 3 2 1 7 7 3 2 10 17 9 190 192 187 190 191 185 184 181 175 177 181 174 169 171 160 159 146 119 99 96 101 100 112 128 128 129
1 3 3 3 6 6 5 6 8 10 12 15 11 13 19 25 24 41 59 138 181 186 182 177 179 172 171 169 162 164 166 162 155 155 137 134 124 124 115 108 109 116 113
12 11 10 9 9 6 4 4 12 14 13 20 21 19 22 26 27 30 33 51 94 134 156 168 173 164 166 161 159 158 155 153 142 140 139 134 121 117 106 98 99 103 113
23 19 13 9 8 6 6 9 14 15 17 19 22 21 25 33 33 31 33 47 63 76 108 129 137 147 158 156 154 152 149 149 146 139 133 130 123 123 120 119 106 99 108
29 23 13 10 10 9 10 16 17 17 19 21 24 27 25 29 30 29 32 47 60 71 78 91 102 112 119 131 137 145 146 143 139 135 132 126 129 131 136 129 122 114 93
34 27 14 14 14 9 12 19 20 18 18 23 27 28 28 27 27 33 39 46 65 82 85 90 104 109 111 112 116 122 131 136 137 132 127 132 134 130 128 131 133 126 106
30 27 19 18 17 12 14 17 18 20 22 24 25 29 30 25 27 32 40 52 64 74 83 95 99 102 114 114 109 101 94 100 116 124 127 134 132 140 136 134 134 121 121
26 24 24 21 19 14 14 14 17 21 22 24 25 25 28 27 25 28 39 51 58 60 60 69 80 78 81 105 102 91 80 72 90 107 116 116 118 132 136 132 127 110 102
26 22 24 21 18 17 15 12 14 21 23 24 29 30 30 27 26 32 42 51 58 60 58 57 68 71 69 92 103 105 99 87 79 92 100 102 95 88 95 107 112 119 118
23 22 20 18 21 22 15 11 11 17 23 32 38 36 35 33 31 35 40 55 62 60 59 60 58 65 67 79 95 105 106 108 109 101 95 94 92 90 93 110 126 128 125
25 24 19 13 20 29 19 14 15 17 25 35 44 43 41 37 37 40 41 55 61 63 61 58 53 61 67 72 79 90 106 113 110 105 97 90 83 74 73 77 86 111 115
27 26 32 28 24 27 20 17 18 17 27 34 39 41 40 39 39 40 48 56 61 66 66 65 60 65 71 73 73 79 91 93 95 93 87 81 78 73 68 72 73 72 81
18 39 47 47 53 40 26 28 23 17 23 30 32 34 38 38 36 41 52 61 63 70 73 77 74 71 71 66 63 70 76 82 90 92 91 86 84 87 80 75 71 70 63
5 49 72 55 54 57 41 34 36 19 15 19 29 31 33 38 26 17 29 55 70 73 76 73 68 69 71 69 61 61 63 77 93 99 102 99 90 84 84 93 97 92 76
347 69 89 89 71 78 79 47 44 56 37 18 12 22 31 34 10 14 30 31 37 47 56 81 70 70 75 71 68 65 66 72 80 91 100 102 97 92 87 87 102 102 102
29 49 71 106 104 106 127 109 50 63 63 56 47 49 64 54 26 27 29 31 32 25 50 74 72 70 71 77 80 74 67 71 79 88 96 108 114 115 108 92 98 110 114
327 85 56 68 88 8 123 142 151 123 55 44 48 57 64 42 29 22 17 10 11 28 60 73 74 72 71 74 80 83 80 74 71 80 91 98 105 111 116 113 105 104 112
241 137 172 208 213 233 84 102 140 155 165 172 132 81 76 38 10 1 3 5 23 46 64 76 77 74 71 72 80 87 87 77 72 77 80 86 95 106 113 115 110 111 120
235 179 173 202 229 217 202 213 144 119 143 143 147 174 217 242 297 318 340 2 71 83 80 78 80 82 80 78 76 79 87 88 86 84 84 79 83 97 104 107 107 104 110
213 135 163 252 255 222 211 206 182 181 178 135 134 142 181 207 223 227 272 39 71 87 97 100 88 83 84 87 88 88 94 99 101 106 116 106 89 100 116 124 133 138 133
219 187 189 220 251 250 227 212 191 183 185 166 137 136 152 248 213 155 148 128 113 118 114 113 117 106 95 92 106 152 148 144 136 121 122 125 115 108 120 128 131 130 125
240 210 190 206 219 227 225 221 209 199 199 183 158 167 183 225 237 193 168 163 150 136 131 137 146 141 139 152 178 179 146 142 140 133 136 137 130 128 121 122 133 134 136
240 249 223 207 206 198 203 227 226 216 210 198 181 172 182 209 207 194 180 167 157 158 153 158 163 161 167 176 164 133 143 159 148 141 139 143 154 166 161 158 153 146 149
227 244 243 222 207 202 205 218 223 216 210 204 196 188 185 190 195 195 186 175 172 177 176 177 185 188 180 169 161 133 92 88 76 71 88 137 163 168 161 158 163 166 151
215 236 240 232 220 213 217 223 226 225 214 206 204 197 189 186 189 191 189 182 180 186 188 184 187 199 199 186 172 150 136 119 100 53 46 55 212 194 181 175 173 177 169
207 226 237 232 227 223 222 227 230 229 223 213 206 201 193 191 191 191 187 184 184 190 193 193 198 197 198 199 182 164 162 161 157 144 61 321 245 214 196 200 199 189 184